Location: B�di�
(14.6834°N, 3.1047°W)
Time: 15:22:10
(UTC+00:00)

Stardust Del rocket - Pass Details

Date: 24 January 2020
Orbit: 286 x 4226 km, 22.5° (Epoch: 25 February)

Event Time Altitude Azimuth Distance (km) Brightness Sun altitude
Rises 18:37:06 0° 279° (W) 2,550 8.0 -7.7°
Reaches altitude 10° 18:40:01 10° 299° (WNW) 1,340 6.0 -8.4°
Maximum altitude 18:42:05 18° 348° (NNW) 834 4.2 -8.8°
Enters shadow 18:43:47 10° 37° (NE) 1,105 4.4 -9.2°
